Tracking 29933 objects as of 3-Dec-2024
HD Live streaming from Space Station
objects crossing your sky now

DELTA 1 DEB

Track DELTA 1 DEB now!
10-day predictions


NORAD ID: 8678
Int'l Code: 1975-004F
Perigee: 739.9 km
Apogee: 993.2 km
Inclination: 97.7 °
Period: 102.1 minutes
Semi major axis: 7237 km
RCS: 0.0564 m2 (small)
Launch date: January 22, 1975
Source: United States (US)
Launch site: AIR FORCE WESTERN TEST RANGE (AFWTR)

Note: This is SATELLITE DEBRIS
Your satellite tracking list
Your tracking list is empty




NASA's NSSDC Master Catalog

Two Line Element Set (TLE):
1 08678U 75004F   24337.15225569  .00000498  00000-0  26225-3 0  9990
2 08678  97.6740  42.9303 0174961 345.0024  14.5999 14.09988572559370
Source of the keplerian elements: AFSPC